Location: Tel Aviv
(32.0670°N, 34.7670°E)
Time: 21:13:19
(UTC+02:00)

CUTE-I - Pass Details

Date: 19 December 2025
Orbit: 805 x 817 km, 98.7° (Epoch: 21 January)

Event Time Altitude Azimuth Distance (km) Brightness Sun altitude
Rises 05:32:13 0° 20° (NNE) 3,345 ? -13.3°
Reaches altitude 10° 05:34:40 10° 26° (NNE) 2,411 ? -12.8°
Maximum altitude 05:39:48 48° 100° (E) 1,058 ? -11.8°
Drops below altitude 10° 05:44:55 10° 174° (S) 2,400 ? -10.8°
Sets 05:47:20 0° 180° (S) 3,328 ? -10.3°
